Flag for Pakistan Weather past 2 weeks in Sahiwal, Pakistan

Now
82 °F

Broken clouds.


Feels Like: 91 °F
Forecast: 80 / 95 °F
Wind: 6 mph from Southeast

Location: Lahore Airport

Current Time: Aug 3, 2015 at 9:45:00 AM

Latest Report: Aug 3, 2015 at 8:55 AM


Visibility: 2 mi

Pressure: 29.65 "Hg

Humidity: 84%

Dew point: 77 °F

Location of SahiwalLocation

Historic Weather in Sahiwal — Graph

°F

Sahiwal temperature yesterday

Maximum temperature yesterday: 88 °F (at 12:55 PM)
Minimum temperature yesterday: 77 °F (at 1:55 AM)
Average temperature yesterday: 82 °F

Past Weeks' High & Low Weather Summary

 TemperatureHumidityPressure
High97 °F (Jul 19, 4:00 PM)100% (Jul 26, 5:25 AM)29.68 "Hg (Jul 26, 5:25 AM)
Low75 °F (Jul 26, 5:25 AM)53% (Jul 19, 4:00 PM)29.45 "Hg (Jul 19, 3:25 PM)
Average85 °F78%29.56 "Hg
* Reported Jul 19 9:55 AM — Aug 3 7:55 AM, Sahiwal, Weather by CustomWeather, © 2015

Note: Actual official high and low records may vary slightly from our data, if they occured in-between our weather recording intervals... More about our weather records

Advertising

Sahiwal weather history for previous 24 hours

 ConditionsComfort  
Time TempWeatherWind HumidityBarometerVisibility
7:55 AM
Mon, Aug 3
81 °FScattered clouds.6 mph89%29.65 "Hg2 mi
7:25 AM81 °FScattered clouds.6 mph84%29.65 "Hg2 mi
6:25 AM79 °FScattered clouds.6 mph89%29.62 "Hg2 mi
5:55 AM77 °FScattered clouds.6 mph94%29.62 "Hg2 mi
5:26 AM77 °FScattered clouds.6 mph94%29.62 "Hg2 mi
5:00 AM77 °FPassing clouds.6 mph94%29.62 "Hg2 mi
4:25 AM77 °FPassing clouds.7 mph94%29.62 "Hg2 mi
3:55 AM77 °FPassing clouds.7 mph94%29.62 "Hg2 mi
3:25 AM77 °FPassing clouds.7 mph94%29.62 "Hg2 mi
2:55 AM79 °FPassing clouds.7 mph89%29.62 "Hg2 mi
2:25 AM79 °FPassing clouds.6 mph89%29.62 "Hg2 mi
1:55 AM79 °FPassing clouds.6 mph89%29.62 "Hg2 mi
1:25 AM79 °FPassing clouds.6 mph94%29.62 "Hg2 mi
12:25 AM79 °FPassing clouds.6 mph94%29.65 "Hg2 mi
11:55 PM
Sun, Aug 2
81 °FPassing clouds.6 mph89%29.68 "Hg2 mi
11:25 PM81 °FPassing clouds.6 mph89%29.68 "Hg2 mi
10:55 PM81 °FPassing clouds.7 mph89%29.68 "Hg2 mi
10:25 PM81 °FThundershowers. Passing clouds.7 mph89%29.68 "Hg2 mi
9:55 PM81 °FThundershowers. Passing clouds.7 mph89%29.68 "Hg2 mi
9:25 PM81 °FThundershowers. Partly cloudy.7 mph89%29.68 "Hg2 mi
8:55 PM81 °FThundershowers. Partly cloudy.7 mph89%29.65 "Hg2 mi
8:25 PM82 °FPartly cloudy.9 mph84%29.65 "Hg2 mi
7:55 PM82 °FPassing clouds.6 mph84%29.65 "Hg3 mi
7:25 PM82 °FPassing clouds.6 mph84%29.65 "Hg3 mi
6:55 PM84 °FScattered clouds.7 mph84%29.62 "Hg3 mi
6:25 PM84 °FScattered clouds.9 mph84%29.62 "Hg3 mi
5:55 PM84 °FScattered clouds.9 mph84%29.62 "Hg3 mi
5:25 PM84 °FScattered clouds.10 mph84%29.62 "Hg3 mi
4:55 PM86 °FBroken clouds.12 mph75%29.62 "Hg3 mi
4:25 PM86 °FBroken clouds.14 mph75%29.62 "Hg3 mi
3:55 PM86 °FBroken clouds.12 mph79%29.62 "Hg3 mi
2:55 PM84 °FRain. Broken clouds.8 mph84%29.62 "Hg3 mi
2:25 PM82 °FRain. Broken clouds.10 mph89%29.65 "Hg3 mi
1:55 PM86 °FBroken clouds.10 mph79%29.65 "Hg3 mi
1:25 PM88 °FBroken clouds.12 mph75%29.68 "Hg3 mi
12:55 PM88 °FBroken clouds.12 mph75%29.68 "Hg3 mi
12:25 PM86 °FBroken clouds.12 mph75%29.68 "Hg3 mi
11:55 AM82 °FBroken clouds.14 mph84%29.68 "Hg3 mi
11:25 AM82 °FBroken clouds.14 mph84%29.68 "Hg3 mi
10:55 AM82 °FBroken clouds.12 mph84%29.68 "Hg3 mi
10:25 AM82 °FBroken clouds.13 mph84%29.68 "Hg3 mi
9:25 AM82 °FBroken clouds.13 mph84%29.68 "Hg3 mi
Weather by CustomWeather, © 2015

See weather overviewHow to use our weather pages